STARLINK-3005, 48881

Orbit data source: Space-Track

STARLINK-3005, 48881 is a payload satellite owned by SpaceX/Seattle (US) in SSO that was launched on Wed, 30 Jun 2021 UTC via an FALCON 9 launch vehicle from the Air Force Eastern Test Range (AFETR). Payload-class satellites include a variety of spacecraft equipped with specific instruments for various scientific and technological missions. These include communications satellites like Starlink; space stations such as the ISS; scientific satellites like the Hubble; Earth observation satellites from companies like Planet Labs, Umbra, and HawkEye 360; GPS; miniature CubeSats for education and research; and military/defense satellites.

Loading next visibility...
Identifier
48881, 2021-059C
Orbit
SSO
Country
Flag of USUS
Related business
Manufacturer
SpaceX/Seattle
Mission
Operational Commercial Communications
Bus & Motor
STARLINK, Unknown motor
Mass
260 kg wet, ~248 kg dry
Launch date (UTC)
2021-06-30 (5 years ago)
Launch vehicle
FALCON 9
Launch site
Air Force Eastern Test Range (AFETR)
Object type
Payload
Rocket body
Debris
Shape & HBR
Box + 1 Pan, 10.1 m
Radar Cross Section
13.562 m², Large (>1 m²)

Expand to show TLE details & history
Last TLE update: 2 days ago

TLE from 2 days ago
0 STARLINK-3005
1 48881U 21059C   26171.32684527 -.00001741  00000-0 -13109-3 0  9992
2 48881  97.5525 296.2950 0001679 191.4095 168.7092 15.01268639274208
Epoch: 2026-06-20T07:50Z
TLE epoch observation values (Epoch: 2026-06-20T07:50:39.431Z)
Latitude
0.00001°
Longitude
-89.91236°
Altitude
567.187 km
Speed
7.577 km/s
True Right ascension
19h 45m 10s
True Declination
0° 00' 00"
Sunlit
Object was in full shadow at epoch
Visualization orbit readout
Latitude
Unknown
Longitude
Unknown
Altitude
Unknown
Speed
Unknown
Apparent Right ascension
Unknown
Apparent Declination
Unknown
Sunlit
N/A
Visualization observer readout
Local Sidereal Time
00:56:44
Azimuth
Unknown
Elevation
Unknown
Doppler factor
Unknown
Orbital elements
Apogee altitude
561.145 km
Perigee altitude
558.815 km
Semi-major axis
6,938.117 km
Eccentricity
0.00017
Inclination
97.5525°
RAAN
296.295°
Arg. of periapsis
191.4095°
True anomaly
168.71297°
Mean anomaly
168.7092°
Eccentric anomaly
168.71108°
Mean motion
3.75561 °/min
Orbital period
95.86 mins
BSTAR
-0.00013109
Loading maneuver chart data...
Computing Atmospheric mass density...

Documentation

Showing up to 5 results
|